Погода в Бережке

Россия / Ивановская область     56°39′11″N   39°55′36″E
темп.,
°C
ветер,
м/с
пор.,
м/с
влажн.,
%
обл.,
%
осадки,
мм/ч
давл.,
гПа
погр.,
м
18 мая, вт
вт1800:00+17вюв389698 0.0 1012168
03:00+15вюв389470 0.0 1012130
06:00+16вюв3128918 0.0 1012252
09:00+22юв496110 0.0 1013421
12:00+26юв6104597 0.0 10121092
15:00+28юв59425 0.0 10112277
18:00+25вюв5125133 0.0 1010881
21:00+21вюв616655 0.0 1011692
19 мая, ср
ср1900:00+18вюв415760 0.0 1010373
03:00+17вюв515750 0.0 1010376
06:00+17вюв4147427 0.0 1010409
09:00+22юв513567 0.0 1011726
12:00+26юв6114514 0.0 10101305
15:00+28юв51141100 0.0 10092847
18:00+25вюв6135784 0.0 10081614
21:00+20юв51583100 2.1 1009497
20 мая, чт
чт2000:00+19юв51587100 0.9 1009613
03:00+16юв39967 0.9 1009228
06:00+17юв31089100 0.0 1010395
09:00+20вюв467371 0.0 1009519
12:00+22юв510726 0.9 10091253
15:00+19ююв5984100 3.6 1008901
18:00+16ююв41190100 0.8 1008711
21:00+14ююв3996100 1.5 1007382
21 мая, пт
пт2100:00+13ююв5129611 0.7 1007517
03:00+12ююв5119897 0.7 1007469
06:00+13ююв51095100 0.2 1007717
09:00+11ююз61190100 0.9 10081036
12:00+10ююз71388100 0.2 10101142
15:00+11ююз71284100 0.3 10121137
18:00+11юз61186100 0.0 10141004
21:00+11зюз5985100 0.0 1017765
22 мая, сб
сб2200:00+9з279380 0.0 1019287
03:00+7юз229786 0.0 102024
06:00+9ю2390100 0.0 1020118
09:00+13ю3471100 0.0 1021587
12:00+14ю2367100 0.0 1021684
15:00+14ююв4475100 0.0 1020464
18:00+13ююв3583100 0.0 1020426
21:00+11юв1198100 1.0 101923